Weather History for Mosul, Iraq

Change the Weather History Date:

Monday, January 21, 2013

  Actual Average Record
Temperature  
Mean Temperature 48 °F -  
Max Temperature 58 °F - - ()
Min Temperature 37 °F - - ()
Degree Days  
Heating Degree Days 18    
Moisture  
Dew Point 41 °F    
Average Humidity 83    
Maximum Humidity 93    
Minimum Humidity 53    
Precipitation  
Precipitation 0.00 in - - ()
Sea Level Pressure  
Sea Level Pressure 30.23 in    
Wind  
Wind Speed 0 mph ()    
Max Wind Speed 7 mph    
Max Gust Speed -    
Visibility 3.8 miles    
Events      
T = Trace of Precipitation, MM = Missing Value Source: Averaged Metar Reports

Daily Weather History Graph

Daily Weather History Graph

Search for Another Location

Airport:

Trip Planner

Search our weather history database for the weather conditions in past years. The results will help you decide how hot, cold, wet, or windy it might be!

Date:

Astronomy

Jan. 21, 2013 Rise Set
Actual Time 7:15 AM AST 5:22 PM AST
Civil Twilight 6:48 AM AST 5:49 PM AST
Nautical Twilight 6:16 AM AST 6:21 PM AST
Astronomical Twilight 5:46 AM AST 6:51 PM AST
Moon 12:47 PM AST (1/21) 2:23 AM AST (1/21)
Length of Visible Light 11h 01m
Length of Day
10h 06m
Waxing Gibbous, 72% of the Moon is Illuminated
Jan 21
Waxing Gibbous
Jan 27
Full
Feb 3
Last Quarter
Feb 10
New
Feb 17
First Quarter

Hourly Weather History & Observations

Time (AST) Temp. Windchill Dew Point Humidity Pressure Visibility Wind Dir Wind Speed Gust Speed Precip Events Conditions
12:00 AM 42 °F - 39 °F 87% 30.23 in 6 mi Calm Calm - -  
12:00 AM 42.8 °F - 39.2 °F 87% 30.15 in - Calm Calm - N/A   Clear
1:00 AM 41.0 °F - 39.2 °F 93% 30.15 in - Calm Calm - N/A   Clear
3:00 AM 40 °F - 38 °F 88% 30.26 in 6 mi Calm Calm - -  
3:00 AM 39.2 °F - 37.4 °F 93% 30.18 in - Calm Calm - N/A   Clear
4:00 AM 39.2 °F - 37.4 °F 93% 30.18 in - Calm Calm - N/A   Clear
5:00 AM 39.2 °F - 37.4 °F 93% 30.18 in - Calm Calm - N/A   Clear
6:00 AM 39 °F - 37 °F 91% 30.27 in 6 mi Calm Calm - -   Clear
6:00 AM 37.4 °F - 35.6 °F 93% 30.18 in - Calm Calm - N/A   Clear
8:00 AM 37.4 °F - 35.6 °F 93% 30.21 in 2.5 mi Calm Calm - N/A   Mist
9:00 AM 40 °F - 38 °F 90% 30.31 in 3 mi Calm Calm - -   Mist
9:00 AM 39.2 °F - 37.4 °F 93% 30.24 in 2.5 mi Calm Calm - N/A   Clear
10:00 AM 39.2 °F - 37.4 °F 93% 30.24 in - Calm Calm - N/A   Mist
11:00 AM 44.6 °F 40.7 °F 35.6 °F 71% 30.27 in 2.5 mi WNW 6.9 mph - N/A   Mist
12:00 PM 53 °F - 45 °F 66% 30.30 in 6 mi Calm Calm - -  
12:00 PM 50.0 °F - 42.8 °F 76% 30.24 in 2.5 mi NW 4.6 mph - N/A   Mist
1:00 PM 51.8 °F - 46.4 °F 82% 30.21 in 2.5 mi Calm Calm - N/A   Clear
2:00 PM 53.6 °F - 46.4 °F 77% 30.21 in 2.5 mi NW 4.6 mph - N/A   Clear
3:00 PM 58 °F - 46 °F 53% 30.24 in 6 mi Calm Calm - -  
3:00 PM 55.4 °F - 48.2 °F 77% 30.21 in 2.5 mi Calm Calm - N/A   Clear
4:00 PM 57.2 °F - 46.4 °F 67% 30.21 in 2.5 mi North 3.5 mph - N/A   Clear
5:00 PM 57.2 °F - 46.4 °F 67% 30.21 in 2.8 mi WNW 2.3 mph - N/A   Clear
6:00 PM 53 °F - 46 °F 69% 30.25 in 6 mi Calm Calm - -  
6:00 PM 55.4 °F - 48.2 °F 77% 30.21 in 2.5 mi Calm Calm - N/A   Clear
7:00 PM 50.0 °F - 46.4 °F 87% 30.21 in 2.8 mi Calm Calm - N/A   Clear
8:00 PM 48.2 °F - 44.6 °F 87% 30.24 in 3.1 mi Calm Calm - N/A   Clear
9:00 PM 45 °F - 41 °F 80% 30.30 in 6 mi Calm Calm - -  
9:00 PM 48.2 °F - 44.6 °F 87% 30.24 in 3.7 mi Calm Calm - N/A   Clear
10:00 PM 44.6 °F - 41.0 °F 87% 30.24 in 3.7 mi Calm Calm - N/A   Clear
11:00 PM 44.6 °F - 41.0 °F 87% 30.24 in 3.7 mi Calm Calm - N/A   Clear